Regional Weather Roundup
Issued by NWS Charleston, SC

Current Version | Previous Version | Graphics & Text | Print | Product List | Glossary On
Versions: 1 2 3 4 5 6 7 8 9 10 11 12 13 14 15 16 17 18 19 20 21 22 23 24 25 26 27 28 29 30 31 32 33 34 35 36 37 38 39 40 41 42 43 44 45 46 47 48 49 50
000
ASUS42 KCHS 270013
RWRCHS

REGIONAL WEATHER ROUNDUP
NATIONAL WEATHER SERVICE CHARLESTON SC
800 PM EDT FRI AUG 26 2016

NOTE: "FAIR" INDICATES FEW OR NO CLOUDS BELOW 12,000 FEET WITH NO
SIGNIFICANT WEATHER AND/OR OBSTRUCTIONS TO VISIBILITY.

NOT ALL STATIONS ARE QUALITY CONTROLLED. USE DATA WITH CAUTION...
ESPECIALLY DEWPOINT OBSERVATIONS.

SCZ027-030-031-034>040-042>050-270100-
...SOUTHEAST SOUTH CAROLINA...

CITY           SKY/WX    TMP DP  RH WIND       PRES   REMARKS
N CHARLESTON   PTCLDY    83  70  64 SE8       30.03S
6HR MIN TEMP:  83; 6HR MAX TEMP:  92;

WATERFRONT PRK   N/A     84  75  74 E8        30.02S HX  92
MOUNT PLEASANT FAIR      81  73  78 CALM      30.04S
JOHNS ISLAND   FAIR      81  73  78 E7        30.03S
PINOPOLIS        N/A     86  73  66 VRB2      29.97R HX  93
MONCKS CORNER  FAIR      81  72  74 CALM      30.03S
SUMMERVILLE    FAIR      86  72  62 SE7       30.04R HX  92
BEAUFORT MCAS  CLEAR     83  73  72 E8        30.03S
6HR MIN TEMP:  83; 6HR MAX TEMP:  92;

BEAUFORT ARPT  FAIR      81  72  74 E5        30.03S
HILTON HEAD IS NOT AVBL
WALTERBORO     CLEAR     84  72  65 SE5       30.04S
ALLENDALE      FAIR      88  73  62 SE8       30.02R HX  96

...SOUTHERN MIDLANDS AND PEE DEE...

CITY           SKY/WX    TMP DP  RH WIND       PRES   REMARKS
GEORGETOWN     FAIR      79  70  73 E7        30.05F
KINGSTREE      FAIR      84  70  61 SE6       30.04R
ORANGEBURG     CLEAR     87  70  56 SE6       30.03S HX  92
6HR MIN TEMP:  87; 6HR MAX TEMP:  94;

BARNWELL       NOT AVBL
AIKEN          FAIR      86  70  58 SE6       30.07R HX  90
MANNING        FAIR      82  72  69 CALM      30.03S
COLUMBIA       PTCLDY    90  70  51 E9        30.02R HX  95
6HR MIN TEMP:  90; 6HR MAX TEMP:  97;

SUMTER         CLEAR     88  72  58 S3        30.01R HX  95
6HR MIN TEMP:  88; 6HR MAX TEMP:  96;

FLORENCE       CLEAR     87  72  60 S5        30.03R HX  93
6HR MIN TEMP:  87; 6HR MAX TEMP:  96;

MYRTLE BEACH   CLEAR     82  64  54 SE8       30.06
N MYRTLE BEACH CLEAR     82  71  69 SE5       30.04S
6HR MIN TEMP:  82; 6HR MAX TEMP:  86;


$$

GAZ063-065-086>088-099>101-113>116-118-119-134>141-150-270100-
...SOUTHEAST GEORGIA...

CITY           SKY/WX    TMP DP  RH WIND       PRES   REMARKS
SAVANNAH ARPT  PTCLDY    83  70  64 E12       30.04R
6HR MIN TEMP:  83; 6HR MAX TEMP:  93;

HUNTER AAF     CLEAR     81  74  78 E7        30.01R
6HR MIN TEMP:  81; 6HR MAX TEMP:  90;

FORT STEWART   CLEAR     82  70  68 CALM      30.01R
6HR MIN TEMP:  82; 6HR MAX TEMP:  91;

STATESBORO     CLEAR     86  73  65 SE6       30.03R HX  94
SYLVANIA       NOT AVBL
CLAXTON        FAIR      85  71  63 E7        30.03R HX  90

...CSRA...CENTRAL AND FAR SOUTHEAST GEORGIA...

CITY           SKY/WX    TMP DP  RH WIND       PRES   REMARKS
THOMSON        CLEAR     90  73  57 MISG      30.07R HX  98
AUGUSTA-BUSH   CLEAR     88  71  57 SE7       30.01R HX  94
6HR MIN TEMP:  88; 6HR MAX TEMP:  96;

AUGUSTA-DANIEL CLEAR     91  69  48 SE7       30.03R HX  96
SWAINSBORO     FAIR      88  68  51 SE6       30.03S HX  91
VIDALIA        CLEAR     86  73  66 SE6       30.02S HX  93
EASTMAN        FAIR      90  51  26 SE5       30.04R
HAZLEHURST     FAIR      87  70  56 CALM      30.01R HX  92
ALMA           CLEAR     84  66  54 E8        30.02R
6HR MIN TEMP:  84; 6HR MAX TEMP:  92;

WAYCROSS         N/A     86  71  60 E7        30.02R HX  91
JESUP          FAIR      82  72  69 E5        30.03S
BAXLEY         FAIR      86  73  66 SE3       30.03R HX  93
BRUNSWICK      PTCLDY    81  72  74 E7        30.03S
SAINT SIMONS   PTCLDY    82  70  66 NE8       30.02R
6HR MIN TEMP:  82; 6HR MAX TEMP:  89;


$$

SCZ027-028-034-036>038-045-046-048>050-GAZ119-141-270100-
...LAKE AND SUPPLEMENTAL COASTAL OBSERVATIONS...

STATION/POSITION TIME  TEMP    WIND        PRES    WAVE   SWELL
                       AIR SEA DIR/SP/G            HT/PER HT/PER/DIR
                 (UTC) (F)     (DEG/KT/KT) (MB)    (FT/S) (FT/S/D)
WINYAH BAY       NOT AVBL
LAKE MURRAY      2300   91     140/  7/ 12 1015.6S
ACE BASIN NERRS  NOT AVBL
FORT PULASKI     2300   84 86   80/ 10/ 12 1017.4F
SAPELO ISLAND    2300   84      70/  8     1017.0S

$$

ANZ835-935-AMZ111-154-330-350-352-354-370-450-454-472-270100-
...C-MAN AND BUOY OBSERVATIONS...

STATION/POSITION TIME  TEMP    WIND        PRES    WAVE   SWELL
                       AIR SEA DIR/SP/G            HT/PER HT/PER/DIR
                 (UTC) (F)     (DEG/KT/KT) (MB)    (FT/S) (FT/S/D)
BUOY 41004       2350   83 83   70/ 12/ 14 1016.2F   3/ 4   2/ 80/ 8
BUOY 41008       2350   83 85   70/ 12/ 14 1016.3S   4/ 8   3/100/ 8
FOLLY BEACH CMAN 0000   82      80/ 10/ 12 1017.3F
CAPERS NEARSHORE 2308   83 84  100/  8/ 12 1017.0F
FRIPP NEARSHORE  2308   83 86  100/ 14/ 17 1016.0F


STATION/POSITION TIME  TEMP    WIND        PRES    WAVE   SWELL
                       AIR SEA DIR/SP/G            HT/PER HT/PER/DIR
                 (UTC) (F)     (DEG/KT/KT) (MB)    (FT/S) (FT/S/D)
5E ST. MARYS GA  2301      85                N/A     3/ 8
FRYING PAN BUOY  2300   83 85   70/ 10/ 14 1017.0R
BUOY 41025       2350   82 86  140/  4/  6 1017.9S   2/ 8   2/ 70/ 8
CAPE LOOKOUT NC  0000   82     140/  7/  9 1017.7R
BUOY 41002       2350   82 84   80/ 16/ 19 1016.1S   6/11   3/130/11
BUOY 41010       NOT AVBL
ST AUGUSTINE FL  0000   83 84   80/ 12/ 12 1017.1R


$$



USA.gov is the U.S. government's official web portal to all federal, state and local government web resources and services.